Alamogordo, NM

10:27 PM MST on January 21, 2018 (GMT -0700)
Alamogordo-White Sands Regional

Weather History for KALM - February, 2013

Change the Weather History Date:

Friday, February 8, 2013

  Actual Average Record
Temperature  
Mean Temperature 48 °F -  
Max Temperature 64 °F 58 °F 75 °F (1963)
Min Temperature 33 °F 30 °F 15 °F (1967)
Degree Days  
Heating Degree Days 16    
Moisture  
Dew Point 22 °F    
Average Humidity 34    
Maximum Humidity 52    
Minimum Humidity 21    
Precipitation  
Precipitation 0.00 in - - ()
Sea Level Pressure  
Sea Level Pressure 30.01 in    
Wind  
Wind Speed 11 mph (SSE)    
Max Wind Speed 29 mph    
Max Gust Speed 38 mph    
Visibility 10 miles    
Events      
Averages and records for this station are not official NWS values.
T = Trace of Precipitation, MM = Missing Value Source: NWS Daily Summary

Daily Weather History Graph

Daily Weather History Graph

Search for Another Location

Airport or City:

Trip Planner

Search our weather history database for the weather conditions in past years. The results will help you decide how hot, cold, wet, or windy it might be!

Date:

Astronomy

Feb. 08, 2013 Rise Set
Actual Time 6:53 AM MST 5:43 PM MST
Civil Twilight 6:27 AM MST 6:08 PM MST
Nautical Twilight 5:58 AM MST 6:38 PM MST
Astronomical Twilight 5:29 AM MST 7:06 PM MST
Moon 5:21 AM MST (2/8) 4:21 PM MST (2/8)
Length of Visible Light 11h 41m
Length of Day
10h 50m
Waning Crescent, 3% of the Moon is Illuminated
Feb 8
Waning Crescent
Feb 10
New
Feb 17
First Quarter
Feb 25
Full
Mar 4
Last Quarter

Hourly Weather History & Observations

Time (MST) Temp. Windchill Dew Point Humidity Pressure Visibility Wind Dir Wind Speed Gust Speed Precip Events Conditions
12:15 AM 39.2 °F 33.6 °F 15.8 °F 39% 30.14 in 10.0 mi NNW 8.1 mph - N/A   Clear
12:35 AM 41.0 °F 35.2 °F 17.6 °F 39% 30.14 in 10.0 mi NNW 9.2 mph - N/A   Clear
12:55 AM 41.0 °F 35.8 °F 17.6 °F 39% 30.14 in 10.0 mi North 8.1 mph - N/A   Clear
1:15 AM 39.2 °F 33.6 °F 17.6 °F 42% 30.14 in 10.0 mi NNW 8.1 mph - N/A   Clear
1:35 AM 37.4 °F 31.4 °F 17.6 °F 45% 30.13 in 10.0 mi NNW 8.1 mph - N/A   Clear
1:55 AM 37.4 °F 30.8 °F 17.6 °F 45% 30.13 in 10.0 mi NNW 9.2 mph - N/A   Clear
2:15 AM 37.4 °F 33.8 °F 17.6 °F 45% 30.13 in 10.0 mi North 4.6 mph - N/A   Clear
2:35 AM 33.8 °F - 15.8 °F 48% 30.13 in 10.0 mi Calm Calm - N/A   Clear
2:55 AM 33.8 °F 27.0 °F 15.8 °F 48% 30.13 in 10.0 mi NE 8.1 mph - N/A   Clear
3:15 AM 35.6 °F 28.6 °F 17.6 °F 48% 30.12 in 10.0 mi NE 9.2 mph - N/A   Clear
3:35 AM 39.2 °F 35.0 °F 19.4 °F 45% 30.12 in 10.0 mi North 5.8 mph - N/A   Clear
3:55 AM 37.4 °F 30.8 °F 19.4 °F 48% 30.12 in 10.0 mi North 9.2 mph - N/A   Clear
4:15 AM 39.2 °F 35.0 °F 19.4 °F 45% 30.12 in 10.0 mi North 5.8 mph - N/A   Clear
4:35 AM 35.6 °F 32.8 °F 17.6 °F 48% 30.11 in 10.0 mi NE 3.5 mph - N/A   Clear
4:55 AM 37.4 °F 29.8 °F 19.4 °F 48% 30.11 in 10.0 mi NNE 11.5 mph - N/A   Clear
5:15 AM 37.4 °F 30.8 °F 19.4 °F 48% 30.10 in 10.0 mi North 9.2 mph - N/A   Clear
5:35 AM 33.8 °F 26.4 °F 17.6 °F 52% 30.11 in 10.0 mi North 9.2 mph - N/A   Clear
5:55 AM 33.8 °F 29.6 °F 17.6 °F 52% 30.13 in 10.0 mi North 4.6 mph - N/A   Clear
6:15 AM 35.6 °F 29.9 °F 17.6 °F 48% 30.13 in 10.0 mi NNE 6.9 mph - N/A   Clear
6:35 AM 35.6 °F 30.7 °F 19.4 °F 52% 30.12 in 10.0 mi North 5.8 mph - N/A   Clear
6:55 AM 37.4 °F 31.4 °F 19.4 °F 48% 30.11 in 10.0 mi NNW 8.1 mph - N/A   Clear
7:15 AM 35.6 °F 30.7 °F 17.6 °F 48% 30.12 in 10.0 mi NNW 5.8 mph - N/A   Clear
7:35 AM 37.4 °F - 19.4 °F 48% 30.12 in 10.0 mi Calm Calm - N/A   Clear
7:55 AM 39.2 °F - 19.4 °F 45% 30.13 in 10.0 mi Calm Calm - N/A   Clear
8:15 AM 41.0 °F - 21.2 °F 45% 30.13 in 10.0 mi Calm Calm - N/A   Clear
8:35 AM 42.8 °F 38.6 °F 21.2 °F 42% 30.13 in 10.0 mi NNW 6.9 mph - N/A   Clear
8:55 AM 44.6 °F 41.4 °F 21.2 °F 39% 30.13 in 10.0 mi North 5.8 mph - N/A   Clear
9:15 AM 46.4 °F 43.5 °F 21.2 °F 37% 30.12 in 10.0 mi North 5.8 mph - N/A   Clear
9:35 AM 48.2 °F - 21.2 °F 34% 30.11 in 10.0 mi NW 5.8 mph - N/A   Clear
9:55 AM 48.2 °F - 21.2 °F 34% 30.11 in 10.0 mi NNW 8.1 mph - N/A   Clear
10:15 AM 50.0 °F - 21.2 °F 32% 30.10 in 10.0 mi NW 5.8 mph - N/A   Clear
10:35 AM 51.8 °F - 21.2 °F 30% 30.10 in 10.0 mi Calm Calm - N/A   Clear
10:55 AM 55.4 °F - 21.2 °F 26% 30.09 in 10.0 mi Calm Calm - N/A   Clear
11:15 AM 60.8 °F - 23.0 °F 23% 30.06 in 10.0 mi South 28.8 mph 34.5 mph N/A   Clear
11:35 AM 62.6 °F - 23.0 °F 22% 30.05 in 9.0 mi South 27.6 mph 33.4 mph N/A   Clear
11:55 AM 62.6 °F - 23.0 °F 22% 30.03 in 9.0 mi South 25.3 mph 33.4 mph N/A   Clear
12:15 PM 64.4 °F - 23.0 °F 21% 30.01 in 10.0 mi SSE 26.5 mph 35.7 mph N/A   Clear
12:35 PM 64.4 °F - 23.0 °F 21% 29.99 in 9.0 mi South 26.5 mph 34.5 mph N/A   Clear
12:55 PM 62.6 °F - 23.0 °F 22% 29.98 in 9.0 mi South 26.5 mph 38.0 mph N/A   Clear
1:15 PM 62.6 °F - 24.8 °F 24% 29.97 in 10.0 mi South 24.2 mph 36.8 mph N/A   Clear
1:35 PM 62.6 °F - 24.8 °F 24% 29.95 in 10.0 mi South 26.5 mph 32.2 mph N/A   Clear
1:55 PM 64.4 °F - 24.8 °F 22% 29.95 in 10.0 mi South 23.0 mph 35.7 mph N/A   Clear
2:15 PM 64.4 °F - 24.8 °F 22% 29.94 in 10.0 mi SSE 27.6 mph 38.0 mph N/A   Clear
2:35 PM 64.4 °F - 24.8 °F 22% 29.93 in 10.0 mi South 24.2 mph 28.8 mph N/A   Clear
2:55 PM 62.6 °F - 24.8 °F 24% 29.92 in 10.0 mi SSE 21.9 mph 32.2 mph N/A   Clear
3:15 PM 64.4 °F - 24.8 °F 22% 29.91 in 10.0 mi SSE 20.7 mph 33.4 mph N/A   Clear
3:35 PM 64.4 °F - 24.8 °F 22% 29.90 in 10.0 mi SSE 20.7 mph 31.1 mph N/A   Clear
3:55 PM 64.4 °F - 24.8 °F 22% 29.89 in 10.0 mi SSE 24.2 mph 34.5 mph N/A   Clear
4:15 PM 64.4 °F - 24.8 °F 22% 29.88 in 10.0 mi SSE 26.5 mph 34.5 mph N/A   Clear
4:35 PM 64.4 °F - 23.0 °F 21% 29.89 in 10.0 mi SSE 21.9 mph 26.5 mph N/A   Clear
4:55 PM 62.6 °F - 23.0 °F 22% 29.89 in 10.0 mi SSE 18.4 mph 27.6 mph N/A   Clear
5:15 PM 60.8 °F - 23.0 °F 23% 29.89 in 10.0 mi SSE 17.3 mph 23.0 mph N/A   Clear
5:35 PM 59.0 °F - 23.0 °F 25% 29.88 in 10.0 mi SSE 16.1 mph - N/A   Clear
5:55 PM 59.0 °F - 21.2 °F 23% 29.88 in 10.0 mi SSE 16.1 mph - N/A   Clear
6:15 PM 55.4 °F - 19.4 °F 25% 29.88 in 10.0 mi South 9.2 mph - N/A   Clear
6:35 PM 53.6 °F - 19.4 °F 26% 29.88 in 10.0 mi SSE 9.2 mph - N/A   Clear
6:55 PM 55.4 °F - 21.2 °F 26% 29.88 in 10.0 mi South 10.4 mph - N/A   Clear
7:15 PM 53.6 °F - 21.2 °F 28% 29.88 in 10.0 mi South 8.1 mph - N/A   Clear
7:35 PM 53.6 °F - 23.0 °F 30% 29.88 in 10.0 mi South 10.4 mph - N/A   Clear
7:55 PM 57.2 °F - 23.0 °F 27% 29.88 in 10.0 mi South 13.8 mph - N/A   Clear
8:15 PM 59.0 °F - 24.8 °F 27% 29.88 in 10.0 mi SSE 15.0 mph 27.6 mph N/A   Clear
8:35 PM 59.0 °F - 24.8 °F 27% 29.87 in 10.0 mi SSE 17.3 mph 27.6 mph N/A   Clear
8:55 PM 59.0 °F - 26.6 °F 29% 29.87 in 10.0 mi SSE 18.4 mph 25.3 mph N/A   Clear
9:15 PM 59.0 °F - 24.8 °F 27% 29.86 in 10.0 mi SSE 17.3 mph 25.3 mph N/A   Clear
9:35 PM 57.2 °F - 26.6 °F 31% 29.86 in 10.0 mi South 17.3 mph 23.0 mph N/A   Clear
9:55 PM 59.0 °F - 26.6 °F 29% 29.87 in 10.0 mi South 17.3 mph - N/A   Clear
10:15 PM 57.2 °F - 26.6 °F 31% 29.87 in 10.0 mi South 16.1 mph 24.2 mph N/A   Clear
10:35 PM 55.4 °F - 26.6 °F 33% 29.86 in 10.0 mi South 15.0 mph - N/A   Clear
10:55 PM 57.2 °F - 26.6 °F 31% 29.86 in 10.0 mi SSE 17.3 mph 24.2 mph N/A   Clear
11:15 PM 57.2 °F - 26.6 °F 31% 29.85 in 10.0 mi South 17.3 mph 27.6 mph N/A   Clear
11:35 PM 57.2 °F - 24.8 °F 29% 29.85 in 10.0 mi SSE 21.9 mph 27.6 mph N/A   Clear
11:55 PM 55.4 °F - 24.8 °F 31% 29.85 in 10.0 mi South 13.8 mph - N/A   Clear